This is the latest recevied weather packets stored in our database for station/object 9M2RSI-1. If no packets are shown the sender has not sent any weather packets the latest 10 day(s).
| Time | Temp. | Humidity | Pressure | Rain* | Wind** | Luminosity | Snow |
|---|---|---|---|---|---|---|---|
| 1777468801 | 30.56° C | 72% | 1010.3 hPa | - | - | - | - |
| 1777467901 | 30.56° C | 73% | 1010 hPa | - | - | - | - |
| 1777467000 | 30.56° C | 73% | 1009.9 hPa | - | - | - | - |
| 1777466100 | 30.56° C | 74% | 1009.7 hPa | - | - | - | - |
| 1777465200 | 30.56° C | 72% | 1009.2 hPa | - | - | - | - |
| 1777464300 | 30.56° C | 75% | 1008.9 hPa | - | - | - | - |
| 1777463400 | 30.56° C | 73% | 1008.5 hPa | - | - | - | - |
| 1777462500 | 30.56° C | 72% | 1008.1 hPa | - | - | - | - |
| 1777461600 | 30.56° C | 72% | 1007.9 hPa | - | - | - | - |
| 1777460700 | 31.11° C | 71% | 1007.5 hPa | - | - | - | - |
| 1777459800 | 31.11° C | 71% | 1007.4 hPa | - | - | - | - |
| 1777458900 | 31.67° C | 68% | 1007.5 hPa | - | - | - | - |
| 1777458000 | 31.67° C | 67% | 1007.6 hPa | - | - | - | - |
| 1777457100 | 31.67° C | 66% | 1007.3 hPa | - | - | - | - |
| 1777456200 | 31.67° C | 65% | 1007.1 hPa | - | - | - | - |
| 1777455299 | 31.67° C | 67% | 1007 hPa | - | - | - | - |
| 1777454399 | 31.67° C | 67% | 1007.1 hPa | - | - | - | - |
| 1777453499 | 31.67° C | 69% | 1007 hPa | - | - | - | - |
| 1777451699 | 31.11° C | 68% | 1006.8 hPa | - | - | - | - |
| 1777450799 | 31.11° C | 67% | 1006.7 hPa | - | - | - | - |
| 1777449899 | 31.11° C | 67% | 1006.8 hPa | - | - | - | - |
| 1777448999 | 30.56° C | 70% | 1007.1 hPa | - | - | - | - |
| 1777431012 | 31.11° C | 70% | 1011.3 hPa | - | - | - | - |
| 1777430112 | 30.56° C | 71% | 1011.3 hPa | - | - | - | - |
| 1777429212 | 30.56° C | 74% | 1011.3 hPa | - | - | - | - |
* Rain since midnight (hover to see other rain measurements)
** Current wind speed in m/s (hover to see current wind gust speed)